Time,TemperatureF,DewpointF,PressureIn,WindDirection,WindDirectionDegrees,WindSpeedMPH,WindSpeedGustMPH,Humidity,HourlyPrecipIn,Conditions,Clouds,dailyrainin,SoftwareType,DateUTC
2013-09-06 00:23:00,81.0,67.0,30.04,SSW,200,4.0,4.0,63,0.00,,,-99.99,,2013-09-06 05:23:00,
2013-09-06 00:52:00,80.0,68.0,30.03,SE,141,2.0,3.0,66,0.00,,,-99.99,,2013-09-06 05:52:00,
2013-09-06 01:21:00,79.0,68.0,30.03,SSE,165,0.0,2.0,68,0.00,,,-99.99,,2013-09-06 06:21:00,
2013-09-06 01:53:00,78.0,67.0,30.02,SSE,166,0.0,1.0,70,0.00,,,-99.99,,2013-09-06 06:53:00,
2013-09-06 02:23:00,78.0,68.0,30.02,ESE,118,0.0,2.0,72,0.00,,,-99.99,,2013-09-06 07:23:00,
2013-09-06 02:52:00,78.0,68.0,30.02,ESE,120,1.0,1.0,72,0.00,,,-99.99,,2013-09-06 07:52:00,
2013-09-06 03:03:00,78.0,68.0,30.02,ESE,120,1.0,1.0,72,0.00,,,-99.99,,2013-09-06 08:03:00,
2013-09-06 03:12:00,78.0,68.0,30.02,ESE,120,1.0,1.0,72,0.00,,,-99.99,,2013-09-06 08:12:00,
2013-09-06 03:22:00,78.0,68.0,30.02,ESE,120,1.0,1.0,72,0.00,,,-99.99,,2013-09-06 08:22:00,
2013-09-06 03:52:00,77.0,68.0,30.02,SE,133,0.0,1.0,74,0.00,,,-99.99,,2013-09-06 08:52:00,
2013-09-06 04:22:00,75.0,68.0,30.01,NNE,15,0.0,0.0,78,0.00,,,-99.99,,2013-09-06 09:22:00,
2013-09-06 04:33:00,75.0,68.0,30.01,NNE,15,0.0,0.0,78,0.00,,,-99.99,,2013-09-06 09:33:00,
2013-09-06 04:53:00,75.0,68.0,30.01,NNE,13,1.0,1.0,79,0.00,,,-99.99,,2013-09-06 09:53:00,
2013-09-06 05:23:00,75.0,68.0,30.02,SE,125,0.0,2.0,79,0.00,,,-99.99,,2013-09-06 10:23:00,
2013-09-06 05:53:00,73.0,68.0,30.02,SE,145,0.0,0.0,84,0.00,,,-99.99,,2013-09-06 10:53:00,
2013-09-06 06:22:00,72.0,67.0,30.02,NW,321,0.0,0.0,85,0.00,,,-99.99,,2013-09-06 11:22:00,
2013-09-06 06:33:00,72.0,67.0,30.02,NW,321,0.0,0.0,85,0.00,,,-99.99,,2013-09-06 11:33:00,
2013-09-06 06:52:00,73.0,68.0,30.02,North,4,0.0,0.0,84,0.00,,,-99.99,,2013-09-06 11:52:00,
2013-09-06 07:02:00,73.0,68.0,30.02,North,4,0.0,0.0,84,0.00,,,-99.99,,2013-09-06 12:02:00,
2013-09-06 07:12:00,73.0,68.0,30.02,North,4,0.0,0.0,84,0.00,,,-99.99,,2013-09-06 12:12:00,
2013-09-06 07:21:00,73.0,68.0,30.02,North,4,0.0,0.0,84,0.00,,,-99.99,,2013-09-06 12:21:00,
2013-09-06 07:52:00,73.0,68.0,30.04,NE,41,0.0,2.0,85,0.00,,,-99.99,,2013-09-06 12:52:00,
2013-09-06 08:22:00,74.0,69.0,30.04,NNE,22,0.0,2.0,84,0.00,,,-99.99,,2013-09-06 13:22:00,
2013-09-06 08:52:00,75.0,68.0,30.05,NNW,348,0.0,2.0,80,0.00,,,-99.99,,2013-09-06 13:52:00,
2013-09-06 09:22:00,78.0,69.0,30.06,NNW,339,1.0,2.0,75,0.00,,,-99.99,,2013-09-06 14:22:00,
2013-09-06 09:32:00,78.0,69.0,30.06,NNW,339,1.0,2.0,75,0.00,,,-99.99,,2013-09-06 14:32:00,
2013-09-06 09:52:00,81.0,71.0,30.07,SW,233,0.0,3.0,71,0.00,,,-99.99,,2013-09-06 14:52:00,
2013-09-06 10:22:00,82.0,70.0,30.07,NNW,347,3.0,4.0,67,0.00,,,-99.99,,2013-09-06 15:22:00,
2013-09-06 10:53:00,83.0,70.0,30.07,NW,306,1.0,5.0,66,0.00,,,-99.99,,2013-09-06 15:53:00,
2013-09-06 11:04:00,83.0,70.0,30.07,NW,306,1.0,5.0,66,0.00,,,-99.99,,2013-09-06 16:04:00,
2013-09-06 11:24:00,86.0,68.0,30.07,East,96,2.0,6.0,56,0.00,,,-99.99,,2013-09-06 16:24:00,
2013-09-06 11:53:00,87.0,67.0,30.07,East,86,3.0,6.0,52,0.00,,,-99.99,,2013-09-06 16:53:00,
2013-09-06 12:24:00,89.0,63.0,30.06,SSE,159,4.0,12.0,42,0.00,,,-99.99,,2013-09-06 17:24:00,
2013-09-06 12:53:00,90.0,64.0,30.06,ESE,114,5.0,10.0,42,0.00,,,-99.99,,2013-09-06 17:53:00,
2013-09-06 13:12:00,89.0,64.0,30.05,East,92,7.0,11.0,43,0.00,,,-99.99,,2013-09-06 18:12:00,
2013-09-06 13:22:00,89.0,64.0,30.05,East,92,7.0,11.0,43,0.00,,,-99.99,,2013-09-06 18:22:00,
2013-09-06 13:52:00,91.0,62.0,30.03,ESE,117,10.0,13.0,38,0.00,,,-99.99,,2013-09-06 18:52:00,
2013-09-06 14:02:00,91.0,62.0,30.03,ESE,117,10.0,13.0,38,0.00,,,-99.99,,2013-09-06 19:02:00,
2013-09-06 14:22:00,93.0,64.0,30.02,East,99,8.0,12.0,38,0.00,,,-99.99,,2013-09-06 19:22:00,
2013-09-06 14:52:00,91.0,60.0,30.01,ESE,107,5.0,10.0,36,0.00,,,-99.99,,2013-09-06 19:52:00,
2013-09-06 15:02:00,91.0,60.0,30.01,ESE,107,5.0,10.0,36,0.00,,,-99.99,,2013-09-06 20:02:00,
2013-09-06 15:12:00,91.0,60.0,30.01,ESE,107,5.0,10.0,36,0.00,,,-99.99,,2013-09-06 20:12:00,
2013-09-06 15:23:00,91.0,60.0,30.01,ESE,107,5.0,10.0,36,0.00,,,-99.99,,2013-09-06 20:23:00,
2013-09-06 15:52:00,93.0,60.0,29.98,SSE,148,6.0,12.0,34,0.00,,,-99.99,,2013-09-06 20:52:00,
2013-09-06 16:22:00,94.0,60.0,29.95,SSE,153,4.0,11.0,32,0.00,,,-99.99,,2013-09-06 21:22:00,
2013-09-06 16:54:00,93.0,60.0,29.94,ENE,71,7.0,12.0,34,0.00,,,-99.99,,2013-09-06 21:54:00,
2013-09-06 17:23:00,93.0,60.0,29.93,East,83,9.0,13.0,34,0.00,,,-99.99,,2013-09-06 22:23:00,
2013-09-06 17:33:00,93.0,60.0,29.93,East,83,9.0,13.0,34,0.00,,,-99.99,,2013-09-06 22:33:00,
2013-09-06 17:54:00,94.0,60.0,29.93,East,99,6.0,15.0,33,0.00,,,-99.99,,2013-09-06 22:54:00,
2013-09-06 18:03:00,94.0,60.0,29.93,East,99,6.0,15.0,33,0.00,,,-99.99,,2013-09-06 23:03:00,
2013-09-06 18:12:00,94.0,60.0,29.93,East,99,6.0,15.0,33,0.00,,,-99.99,,2013-09-06 23:12:00,
2013-09-06 18:23:00,94.0,60.0,29.93,East,99,6.0,15.0,33,0.00,,,-99.99,,2013-09-06 23:23:00,
2013-09-06 18:43:00,93.0,62.0,29.93,ESE,110,10.0,12.0,36,0.00,,,-99.99,,2013-09-06 23:43:00,
2013-09-06 18:52:00,93.0,62.0,29.93,ESE,110,10.0,12.0,36,0.00,,,-99.99,,2013-09-06 23:52:00,
2013-09-06 19:22:00,92.0,62.0,29.93,East,84,10.0,13.0,37,0.00,,,-99.99,,2013-09-07 00:22:00,
2013-09-06 19:32:00,92.0,62.0,29.93,East,84,10.0,13.0,37,0.00,,,-99.99,,2013-09-07 00:32:00,
2013-09-06 19:52:00,91.0,61.0,29.93,SE,134,6.0,11.0,37,0.00,,,-99.99,,2013-09-07 00:52:00,
2013-09-06 20:22:00,89.0,61.0,29.93,SE,146,3.0,7.0,40,0.00,,,-99.99,,2013-09-07 01:22:00,
2013-09-06 20:53:00,87.0,62.0,29.94,SE,129,1.0,3.0,43,0.00,,,-99.99,,2013-09-07 01:53:00,
2013-09-06 21:23:00,85.0,61.0,29.94,SE,140,1.0,2.0,45,0.00,,,-99.99,,2013-09-07 02:23:00,
2013-09-06 21:32:00,85.0,61.0,29.94,SE,140,1.0,2.0,45,0.00,,,-99.99,,2013-09-07 02:32:00,
2013-09-06 21:52:00,84.0,62.0,29.94,SE,136,1.0,2.0,48,0.00,,,-99.99,,2013-09-07 02:52:00,
2013-09-06 22:02:00,84.0,62.0,29.94,SE,136,1.0,2.0,48,0.00,,,-99.99,,2013-09-07 03:02:00,
2013-09-06 22:23:00,83.0,62.0,29.95,SE,145,1.0,2.0,49,0.00,,,-99.99,,2013-09-07 03:23:00,
2013-09-06 22:55:00,82.0,62.0,29.96,ESE,118,1.0,2.0,51,0.00,,,-99.99,,2013-09-07 03:55:00,
2013-09-06 23:03:00,82.0,62.0,29.96,ESE,118,1.0,2.0,51,0.00,,,-99.99,,2013-09-07 04:03:00,
2013-09-06 23:23:00,82.0,63.0,29.96,SE,129,0.0,2.0,52,0.00,,,-99.99,,2013-09-07 04:23:00,
2013-09-06 23:54:00,81.0,62.0,29.96,SSE,153,1.0,2.0,53,0.00,,,-99.99,,2013-09-07 04:54:00,